SCP
0 0 0 0 0 0 0 0 0 0 0 0 0 0 0 0 0 0 0 0 0 0 0 0 0 0 0 0 0 0 0 0 0 0 0 0 0 0 0 0 0 0 0
0 0 0 0 0 0 0 0 0 0 0 0 0 0 0 0 0 0 0 0 0 0 0 0 0 0 0 0 0 0 0 0 0 0 0 0 0 0 0 0 0 0 0
0 0 0 0 0 0 0 0 0 0 0 0 0 0 0 0 0 0 0 0 0 0 0 0 0 0 0 0 0 0 0 0 0 0 0 0 0 0 0 0 0 0 0
0 0 0 0 0 0 0 0 0 0 0 0 0 0 0 0 0 0 0 0 0 0 0 0 0 0 0 0 0 0 0 0 0 0 0 0 0 0 0 0 0 0 0
0 0 0 0 0 0 0 0 0 0 0 0 0 0 0 0 0 0 0 0 0 0 0 0 0 0 0 0 0 0 0 0 0 0 0 0 0 0 0 0 0 0 0
0 0 0 0 0 0 0 0 0 0 0 0 0 0 0 0 0 0 0 0 0 0 0 0 0 0 0 0 0 0 0 0 0 0 0 0 0 0 0 0 0 0 0
0 0 0 0 0 0 0 0 0 0 0 0 0 0 0 0 0 0 0 0 0 0 0 0 0 0 0 0 0 0 0 0 0 0 0 0 0 0 0 0 0 0 0
0 0 0 0 0 0 0 0 0 0 0 0 0 0 0 0 0 0 0 0 0 0 0 0 0 0 0 0 0 0 0 0 0 0 0 0 0 0 0 0 0 0 0
0 0 0 0 0 0 0 0 0 0 0 0 0 0 0 0 0 0 0 0 0 0 0 0 0 0 0 0 0 0 0 0 0 0 0 0 0 0 0 0 0 0 0
0 0 0 0 0 0 0 0 0 0 0 0 0 0 0 0 0 0 0 0 0 0 0 0 0 0 0 0 0 0 0 0 0 0 0 0 0 0 0 0 0 0 0
0 0 0 0 0 0 0 0 0 0 0 0 0 0 0 0 0 0 0 0 0 0 0 0 0 0 0 0 0 0 0 0 0 0 0 0 0 0 0 0 0 0 0
0 0 0 0 0 0 0 0 0 0 0 0 0 0 0 0 0 0 0 0 0 0 0 0 0 0 0 0 0 0 0 0 0 0 0 0 0 0 0 0 0 0 0
0 0 0 0 0 0 0 0 0 0 0 0 0 0 0 0 0 0 0 0 0 0 0 0 0 0 0 0 0 0 0 0 0 0 0 0 0 0 0 0 0 0 0
0 0 0 0 0 0 0 0 0 0 0 0 0 0 0 0 0 0 0 0 0 0 0 0 0 0 0 0 0 0 0 0 0 0 0 0 0 0 0 0 0 0 0
0 0 0 0 0 0 0 0 0 0 0 0 0 0 0 0 0 0 0 0 0 0 0 0 0 0 0 0 0 0 0 0 0 0 0 0 0 0 0 0 0 0 0
0 0 0 0 0 0 0 0 0 0 0 0 0 0 0 0 0 0 0 0 0 0 0 0 0 0 0 0 0 0 0 0 0 0 0 0 0 0 0 0 0 0 0
0 0 0 0 0 0 0 0 0 0 0 0 0 0 0 0 0 0 0 0 0 0 0 0 0 0 0 0 0 0 0 0 0 0 0 0 0 0 0 0 0 0 0
0 0 0 0 0 0 0 0 0 0 0 0 0 0 0 0 0 0 0 0 0 0 0 0 0 0 0 0 0 0 0 0 0 0 0 0 0 0 0 0 0 0 0
0 0 0 0 0 -0 0 0 0 0 0 0 0 0 0 0 0 0 0 0 0 0 0 0 0 0 0 0 0 0 0 0 0 0 0 0 0 0 0 0 0 0 0
0 0 0 0 0 0 0 0 0 0 0 0 0 0 0 0 0 0 0 0 0 0 0 0 0 0 0 0 0 0 0 0 0 0 0 0 0 0 0 0 0 0 0
0 0 0 0 0 0 0 0 0 0 0 0 0 0 0 0 0 0 0 0 0 0 0 0 0 0 0 0 0 0 0 0 0 0 0 0 0 0 0 0 0 0 0
0 0 0 0 0 0 0 0 0 0 0 0 0 0 0 0 0 0 0 0 0 0 0 0 0 0 0 0 0 0 0 0 0 0 0 0 0 0 0 0 0 0 0
0 0 0 0 0 0 0 0 0 0 0 0 0 0 0 0 0 0 0 0 0 0 0 0 0 0 0 0 0 0 0 0 0 0 0 0 0 0 0 0 0 -0 -0
0 0 0 0 0 0 0 0 0 0 0 0 0 0 0 0 0 0 0 0 0 0 0 0 0 0 0 0 0 0 0 0 0 0 0 0 0 0 0 0 -0 -0 -0
0 0 0 0 0 0 0 0 0 0 0 0 0 0 0 0 0 0 0 0 0 0 0 0 0 0 0 0 0 0 0 0 0 0 0 0 0 0 0 0 0 0 -0
0 0 0 0 0 0 0 0 0 0 0 0 0 0 0 0 0 0 0 0 0 0 0 0 0 0 0 0 0 0 0 0 0 0 0 0 0 0 0 0 0 0 0
Wind_Speed_500mb
35 29 25 23 16 13 9 9 9 6 2 2 3 3 3 4 6 5 6 5 1 13 16 16 10 3 7 16 18 18 21 25 27 28 28 29 30 31 30 31 35 36 37
32 28 27 20 18 13 11 10 8 6 5 5 4 4 4 5 6 6 6 6 6 5 9 15 18 15 10 16 17 19 20 23 25 27 29 30 31 32 32 35 35 36 38
33 33 27 22 18 15 12 11 9 8 8 7 6 7 8 8 9 9 9 9 9 11 13 17 18 23 24 20 16 17 21 22 25 27 28 29 30 31 34 36 37 37 38
33 30 27 23 20 16 13 11 11 11 9 10 11 12 11 12 11 12 12 13 14 16 16 16 20 22 23 22 21 22 22 25 29 30 31 30 29 30 32 33 35 38 39
36 30 28 26 20 17 14 14 13 12 13 14 13 14 14 13 14 15 17 17 17 17 18 20 22 20 20 23 25 29 31 34 33 31 30 31 30 32 33 33 35 38 37
36 34 31 28 24 19 17 18 17 16 16 15 16 16 15 17 19 20 19 18 18 18 19 19 20 22 23 25 28 31 34 34 32 31 31 32 31 33 33 33 35 37 38
39 33 28 28 22 21 21 20 18 17 18 18 17 15 16 20 22 22 22 21 20 20 18 19 21 23 24 26 29 34 34 34 35 36 38 37 36 35 35 36 37 37 39
37 32 26 26 24 24 24 22 20 20 20 23 19 17 11 19 27 28 26 24 23 21 20 20 21 24 26 29 32 37 37 36 36 36 37 38 38 38 36 37 39 39 42
40 31 28 27 27 28 25 23 22 21 21 24 22 16 9 12 16 26 29 27 24 23 21 22 23 25 28 31 36 38 35 35 35 36 39 41 42 41 37 37 39 40 45
40 35 33 32 32 30 27 24 23 22 19 20 22 27 28 26 11 11 25 30 29 27 24 25 26 26 30 31 35 35 35 36 37 39 40 43 44 43 40 38 40 40 45
45 40 39 38 36 33 28 25 21 18 17 19 22 20 23 26 28 24 14 23 30 29 29 29 27 28 27 31 36 39 38 40 42 43 44 45 46 46 48 43 42 42 46
50 47 45 42 36 32 30 23 18 15 16 19 19 20 22 22 23 24 21 20 21 28 28 31 29 29 28 33 38 40 40 41 42 44 46 47 49 50 50 49 48 46 49
56 54 47 43 40 37 30 22 15 20 20 19 19 21 22 22 23 23 23 24 22 27 27 30 31 30 31 35 40 42 43 44 45 47 48 50 52 56 57 56 54 52 57
64 56 50 47 45 38 26 16 17 19 21 21 20 22 21 22 23 24 25 25 21 24 30 32 34 32 36 41 43 46 47 48 49 52 53 55 55 56 59 61 60 62 67
63 54 49 49 44 29 18 24 18 27 28 25 23 22 22 23 24 27 29 28 26 14 20 35 34 37 43 45 48 48 52 53 51 52 54 58 58 59 60 62 64 68 73
60 56 52 40 23 19 19 22 33 33 29 28 26 24 24 26 29 32 33 34 34 35 32 41 43 49 50 50 51 52 55 56 53 54 55 59 60 61 60 63 66 71 73
61 51 43 27 27 24 28 36 38 36 32 31 30 29 29 31 33 37 39 40 42 44 50 49 55 55 56 58 56 57 58 60 59 57 56 60 60 61 61 64 68 72 76
51 41 36 23 25 33 39 39 38 36 36 35 35 35 36 37 41 42 45 47 49 52 54 61 59 61 63 63 60 63 61 64 67 62 56 62 63 60 62 64 69 72 78
43 23 20 26 37 41 37 37 40 41 39 40 41 42 43 45 47 49 50 53 55 57 61 66 67 66 66 68 66 67 67 67 66 73 64 64 61 63 66 65 65 73 79
18 25 30 38 38 37 36 40 42 42 44 45 46 50 50 51 53 54 57 58 60 64 66 70 72 69 67 66 68 69 70 66 69 72 74 53 67 72 68 66 65 75 81
32 37 34 34 34 34 36 40 42 45 48 49 53 55 54 56 58 60 65 65 67 69 72 75 74 69 70 68 70 65 70 72 73 70 68 57 72 80 75 67 68 78 77
26 26 29 27 31 34 36 41 46 50 52 54 57 58 59 61 64 67 70 71 72 74 79 80 81 81 77 76 69 66 67 68 61 61 69 81 77 78 74 68 71 76 66
22 23 27 31 34 37 39 43 48 53 55 58 60 62 64 66 66 71 73 75 79 81 81 83 89 87 79 71 68 69 69 66 65 73 81 88 77 79 74 80 77 68 71
22 25 28 33 38 41 44 47 52 57 61 62 65 65 68 69 70 72 76 81 84 84 89 86 92 88 85 83 85 79 77 73 74 72 67 85 82 87 92 93 75 69 73
25 31 36 40 42 45 47 49 54 60 66 68 67 68 69 73 73 74 82 89 89 90 87 82 84 84 89 90 84 84 69 64 70 61 64 69 82 98 102 93 78 87 81
31 35 40 42 43 45 46 51 55 63 69 73 72 72 71 74 76 76 80 82 90 93 86 85 75 77 75 82 82 73 67 64 60 63 53 66 79 71 88 88 86 97 89
Wind_Direction_500mb
189 186 184 196 194 217 242 269 296 301 278 212 199 192 185 185 172 176 176 211 183 86 87 103 122 331 32 17 27 16 15 10 6 3 4 6 2 1 359 359 356 353 350
190 194 195 194 203 225 247 270 275 246 223 214 213 203 204 200 199 198 201 226 262 256 210 214 240 272 3 15 17 12 5 1 2 359 0 359 358 355 351 345 347 347 342
196 202 202 203 217 230 256 262 236 217 215 217 218 211 211 211 213 221 227 240 252 269 281 290 288 293 298 325 14 7 2 4 355 353 351 350 353 350 345 344 345 343 342
202 202 206 213 222 239 257 243 219 213 208 207 205 205 208 210 219 231 243 253 267 281 291 296 300 303 309 323 335 346 358 345 343 341 343 345 346 343 340 343 341 337 336
205 206 218 229 233 245 241 222 215 211 213 208 205 207 207 213 229 245 256 266 277 289 299 307 312 317 318 319 325 329 332 330 329 332 336 338 342 339 340 338 335 335 333
209 214 223 232 238 241 229 215 213 211 210 208 205 204 211 224 236 245 255 264 273 282 295 305 311 312 316 322 327 328 327 327 328 331 333 334 336 336 336 334 333 331 328
215 219 228 238 235 228 218 214 215 217 210 204 200 202 219 234 241 244 251 259 270 282 289 297 300 307 315 322 326 326 328 324 322 323 324 325 329 333 333 332 328 327 324
216 225 235 236 234 224 216 215 218 224 218 203 204 218 236 254 250 248 250 256 264 269 278 289 300 305 313 319 325 328 328 323 321 321 318 321 325 328 330 328 326 325 321
219 228 234 235 231 220 215 217 221 221 222 219 225 221 217 235 248 254 249 255 256 262 275 288 296 302 311 317 327 327 325 321 320 319 318 318 319 322 325 323 322 321 318
220 228 230 229 227 220 215 217 216 218 228 236 240 240 246 251 232 260 258 253 255 261 275 283 293 299 307 316 323 325 324 322 322 318 316 317 317 317 319 318 318 317 315
223 227 228 224 221 216 213 209 210 220 234 247 247 250 254 254 249 238 249 260 256 260 272 277 285 292 298 313 322 327 329 326 322 318 317 316 316 316 315 315 314 314 311
223 227 223 217 213 210 204 206 212 233 244 242 250 262 262 258 257 246 242 247 247 269 272 274 276 285 294 313 323 327 328 323 317 313 313 313 314 314 313 312 312 311 311
225 225 217 211 204 199 200 200 223 260 239 240 256 267 266 264 264 258 255 255 255 267 272 273 276 282 300 313 318 323 323 320 315 312 311 312 314 312 311 310 311 309 311
225 217 208 200 196 194 200 239 260 222 234 251 257 263 265 267 267 270 268 267 276 271 278 276 286 286 300 306 311 316 318 318 315 313 310 309 308 306 307 308 311 310 311
222 213 200 197 192 199 240 270 223 230 235 248 255 262 268 272 277 276 273 272 267 268 275 284 282 288 296 302 307 310 311 313 311 308 307 303 302 303 305 306 308 310 310
210 201 194 188 203 243 235 216 225 234 239 247 256 262 270 276 277 278 279 279 277 271 268 282 281 286 292 294 298 302 303 304 307 308 304 300 300 301 302 306 309 310 309
198 189 182 207 237 217 218 228 231 237 244 252 259 265 272 274 277 280 280 281 280 277 273 277 284 287 289 292 294 296 296 302 306 307 305 301 300 301 303 307 309 310 310
189 187 203 202 218 231 235 229 237 246 252 258 264 270 274 276 277 278 281 281 279 279 278 281 283 286 291 291 292 294 300 303 305 306 306 303 303 302 302 309 312 311 312
179 185 180 197 230 238 233 237 244 249 257 263 267 270 273 275 277 278 279 279 281 281 280 280 282 285 287 287 291 293 297 298 303 305 306 306 304 303 306 310 311 313 313
171 199 213 238 236 236 240 245 251 259 263 266 270 273 275 277 279 281 280 281 282 281 281 280 280 282 284 287 288 292 294 297 302 303 305 306 306 308 313 314 315 315 317
205 231 233 235 239 247 252 259 264 266 268 272 273 275 278 280 282 282 281 283 283 282 280 279 277 280 283 283 286 291 293 301 302 306 304 307 311 313 315 315 321 319 318
212 232 243 252 259 263 266 269 272 273 274 276 278 279 280 281 281 282 283 284 284 281 280 278 278 279 281 280 281 289 293 300 306 307 307 306 316 313 313 316 323 319 319
225 242 254 261 266 271 272 274 278 279 279 279 280 282 282 282 283 284 285 286 284 281 282 280 277 278 281 280 285 290 293 293 294 302 307 307 318 312 311 317 323 320 327
246 260 271 276 274 277 280 280 278 279 282 285 284 284 285 286 286 288 287 285 283 283 280 278 279 283 280 280 284 287 288 290 293 300 305 305 316 313 312 317 323 326 331
277 281 285 285 283 281 284 286 286 286 286 287 289 288 287 287 289 290 288 286 285 283 282 281 280 275 271 275 278 279 283 290 296 300 305 306 315 313 314 320 324 328 333
285 293 297 297 294 293 294 292 291 291 291 292 289 288 289 290 289 288 286 287 285 288 288 287 282 277 268 275 275 279 283 285 288 300 301 306 310 315 318 320 317 326 331
Wind_Speed_850mb
35 29 25 23 16 13 9 9 9 6 2 2 3 3 3 4 6 5 6 5 1 13 16 16 10 3 7 16 18 18 21 25 27 28 28 29 30 31 30 31 35 36 37
32 28 27 20 18 13 11 10 8 6 5 5 4 4 4 5 6 6 6 6 6 5 9 15 18 15 10 16 17 19 20 23 25 27 29 30 31 32 32 35 35 36 38
33 33 27 22 18 15 12 11 9 8 8 7 6 7 8 8 9 9 9 9 9 11 13 17 18 23 24 20 16 17 21 22 25 27 28 29 30 31 34 36 37 37 38
33 30 27 23 20 16 13 11 11 11 9 10 11 12 11 12 11 12 12 13 14 16 16 16 20 22 23 22 21 22 22 25 29 30 31 30 29 30 32 33 35 38 39
36 30 28 26 20 17 14 14 13 12 13 14 13 14 14 13 14 15 17 17 17 17 18 20 22 20 20 23 25 29 31 34 33 31 30 31 30 32 33 33 35 38 37
36 34 31 28 24 19 17 18 17 16 16 15 16 16 15 17 19 20 19 18 18 18 19 19 20 22 23 25 28 31 34 34 32 31 31 32 31 33 33 33 35 37 38
39 33 28 28 22 21 21 20 18 17 18 18 17 15 16 20 22 22 22 21 20 20 18 19 21 23 24 26 29 34 34 34 35 36 38 37 36 35 35 36 37 37 39
37 32 26 26 24 24 24 22 20 20 20 23 19 17 11 19 27 28 26 24 23 21 20 20 21 24 26 29 32 37 37 36 36 36 37 38 38 38 36 37 39 39 42
40 31 28 27 27 28 25 23 22 21 21 24 22 16 9 12 16 26 29 27 24 23 21 22 23 25 28 31 36 38 35 35 35 36 39 41 42 41 37 37 39 40 45
40 35 33 32 32 30 27 24 23 22 19 20 22 27 28 26 11 11 25 30 29 27 24 25 26 26 30 31 35 35 35 36 37 39 40 43 44 43 40 38 40 40 45
45 40 39 38 36 33 28 25 21 18 17 19 22 20 23 26 28 24 14 23 30 29 29 29 27 28 27 31 36 39 38 40 42 43 44 45 46 46 48 43 42 42 46
50 47 45 42 36 32 30 23 18 15 16 19 19 20 22 22 23 24 21 20 21 28 28 31 29 29 28 33 38 40 40 41 42 44 46 47 49 50 50 49 48 46 49
56 54 47 43 40 37 30 22 15 20 20 19 19 21 22 22 23 23 23 24 22 27 27 30 31 30 31 35 40 42 43 44 45 47 48 50 52 56 57 56 54 52 57
64 56 50 47 45 38 26 16 17 19 21 21 20 22 21 22 23 24 25 25 21 24 30 32 34 32 36 41 43 46 47 48 49 52 53 55 55 56 59 61 60 62 67
63 54 49 49 44 29 18 24 18 27 28 25 23 22 22 23 24 27 29 28 26 14 20 35 34 37 43 45 48 48 52 53 51 52 54 58 58 59 60 62 64 68 73
60 56 52 40 23 19 19 22 33 33 29 28 26 24 24 26 29 32 33 34 34 35 32 41 43 49 50 50 51 52 55 56 53 54 55 59 60 61 60 63 66 71 73
61 51 43 27 27 24 28 36 38 36 32 31 30 29 29 31 33 37 39 40 42 44 50 49 55 55 56 58 56 57 58 60 59 57 56 60 60 61 61 64 68 72 76
51 41 36 23 25 33 39 39 38 36 36 35 35 35 36 37 41 42 45 47 49 52 54 61 59 61 63 63 60 63 61 64 67 62 56 62 63 60 62 64 69 72 78
43 23 20 26 37 41 37 37 40 41 39 40 41 42 43 45 47 49 50 53 55 57 61 66 67 66 66 68 66 67 67 67 66 73 64 64 61 63 66 65 65 73 79
18 25 30 38 38 37 36 40 42 42 44 45 46 50 50 51 53 54 57 58 60 64 66 70 72 69 67 66 68 69 70 66 69 72 74 53 67 72 68 66 65 75 81
32 37 34 34 34 34 36 40 42 45 48 49 53 55 54 56 58 60 65 65 67 69 72 75 74 69 70 68 70 65 70 72 73 70 68 57 72 80 75 67 68 78 77
26 26 29 27 31 34 36 41 46 50 52 54 57 58 59 61 64 67 70 71 72 74 79 80 81 81 77 76 69 66 67 68 61 61 69 81 77 78 74 68 71 76 66
22 23 27 31 34 37 39 43 48 53 55 58 60 62 64 66 66 71 73 75 79 81 81 83 89 87 79 71 68 69 69 66 65 73 81 88 77 79 74 80 77 68 71
22 25 28 33 38 41 44 47 52 57 61 62 65 65 68 69 70 72 76 81 84 84 89 86 92 88 85 83 85 79 77 73 74 72 67 85 82 87 92 93 75 69 73
25 31 36 40 42 45 47 49 54 60 66 68 67 68 69 73 73 74 82 89 89 90 87 82 84 84 89 90 84 84 69 64 70 61 64 69 82 98 102 93 78 87 81
31 35 40 42 43 45 46 51 55 63 69 73 72 72 71 74 76 76 80 82 90 93 86 85 75 77 75 82 82 73 67 64 60 63 53 66 79 71 88 88 86 97 89
Wind_Direction_850mb
189 186 184 196 194 217 242 269 296 301 278 212 199 192 185 185 172 176 176 211 183 86 87 103 122 331 32 17 27 16 15 10 6 3 4 6 2 1 359 359 356 353 350
190 194 195 194 203 225 247 270 275 246 223 214 213 203 204 200 199 198 201 226 262 256 210 214 240 272 3 15 17 12 5 1 2 359 0 359 358 355 351 345 347 347 342
196 202 202 203 217 230 256 262 236 217 215 217 218 211 211 211 213 221 227 240 252 269 281 290 288 293 298 325 14 7 2 4 355 353 351 350 353 350 345 344 345 343 342
202 202 206 213 222 239 257 243 219 213 208 207 205 205 208 210 219 231 243 253 267 281 291 296 300 303 309 323 335 346 358 345 343 341 343 345 346 343 340 343 341 337 336
205 206 218 229 233 245 241 222 215 211 213 208 205 207 207 213 229 245 256 266 277 289 299 307 312 317 318 319 325 329 332 330 329 332 336 338 342 339 340 338 335 335 333
209 214 223 232 238 241 229 215 213 211 210 208 205 204 211 224 236 245 255 264 273 282 295 305 311 312 316 322 327 328 327 327 328 331 333 334 336 336 336 334 333 331 328
215 219 228 238 235 228 218 214 215 217 210 204 200 202 219 234 241 244 251 259 270 282 289 297 300 307 315 322 326 326 328 324 322 323 324 325 329 333 333 332 328 327 324
216 225 235 236 234 224 216 215 218 224 218 203 204 218 236 254 250 248 250 256 264 269 278 289 300 305 313 319 325 328 328 323 321 321 318 321 325 328 330 328 326 325 321
219 228 234 235 231 220 215 217 221 221 222 219 225 221 217 235 248 254 249 255 256 262 275 288 296 302 311 317 327 327 325 321 320 319 318 318 319 322 325 323 322 321 318
220 228 230 229 227 220 215 217 216 218 228 236 240 240 246 251 232 260 258 253 255 261 275 283 293 299 307 316 323 325 324 322 322 318 316 317 317 317 319 318 318 317 315
223 227 228 224 221 216 213 209 210 220 234 247 247 250 254 254 249 238 249 260 256 260 272 277 285 292 298 313 322 327 329 326 322 318 317 316 316 316 315 315 314 314 311
223 227 223 217 213 210 204 206 212 233 244 242 250 262 262 258 257 246 242 247 247 269 272 274 276 285 294 313 323 327 328 323 317 313 313 313 314 314 313 312 312 311 311
225 225 217 211 204 199 200 200 223 260 239 240 256 267 266 264 264 258 255 255 255 267 272 273 276 282 300 313 318 323 323 320 315 312 311 312 314 312 311 310 311 309 311
225 217 208 200 196 194 200 239 260 222 234 251 257 263 265 267 267 270 268 267 276 271 278 276 286 286 300 306 311 316 318 318 315 313 310 309 308 306 307 308 311 310 311
222 213 200 197 192 199 240 270 223 230 235 248 255 262 268 272 277 276 273 272 267 268 275 284 282 288 296 302 307 310 311 313 311 308 307 303 302 303 305 306 308 310 310
210 201 194 188 203 243 235 216 225 234 239 247 256 262 270 276 277 278 279 279 277 271 268 282 281 286 292 294 298 302 303 304 307 308 304 300 300 301 302 306 309 310 309
198 189 182 207 237 217 218 228 231 237 244 252 259 265 272 274 277 280 280 281 280 277 273 277 284 287 289 292 294 296 296 302 306 307 305 301 300 301 303 307 309 310 310
189 187 203 202 218 231 235 229 237 246 252 258 264 270 274 276 277 278 281 281 279 279 278 281 283 286 291 291 292 294 300 303 305 306 306 303 303 302 302 309 312 311 312
179 185 180 197 230 238 233 237 244 249 257 263 267 270 273 275 277 278 279 279 281 281 280 280 282 285 287 287 291 293 297 298 303 305 306 306 304 303 306 310 311 313 313
171 199 213 238 236 236 240 245 251 259 263 266 270 273 275 277 279 281 280 281 282 281 281 280 280 282 284 287 288 292 294 297 302 303 305 306 306 308 313 314 315 315 317
205 231 233 235 239 247 252 259 264 266 268 272 273 275 278 280 282 282 281 283 283 282 280 279 277 280 283 283 286 291 293 301 302 306 304 307 311 313 315 315 321 319 318
212 232 243 252 259 263 266 269 272 273 274 276 278 279 280 281 281 282 283 284 284 281 280 278 278 279 281 280 281 289 293 300 306 307 307 306 316 313 313 316 323 319 319
225 242 254 261 266 271 272 274 278 279 279 279 280 282 282 282 283 284 285 286 284 281 282 280 277 278 281 280 285 290 293 293 294 302 307 307 318 312 311 317 323 320 327
246 260 271 276 274 277 280 280 278 279 282 285 284 284 285 286 286 288 287 285 283 283 280 278 279 283 280 280 284 287 288 290 293 300 305 305 316 313 312 317 323 326 331
277 281 285 285 283 281 284 286 286 286 286 287 289 288 287 287 289 290 288 286 285 283 282 281 280 275 271 275 278 279 283 290 296 300 305 306 315 313 314 320 324 328 333
285 293 297 297 294 293 294 292 291 291 291 292 289 288 289 290 289 288 286 287 285 288 288 287 282 277 268 275 275 279 283 285 288 300 301 306 310 315 318 320 317 326 331